Temperature
34 34 33 34 35 34 34 33 33 34 35 34 34 33 33 32 32 31 30 29 28 26 25 24 23 23 22 21 20 20 20 20 19 19 19 18 18 18 18 18 18 18 18 18
34 33 35 35 35 34 34 34 34 34 35 34 34 33 33 33 32 32 30 29 28 27 25 24 23 23 22 21 20 20 20 20 19 19 19 18 18 18 18 18 18 18 18 18
33 34 35 35 35 34 34 34 34 34 35 35 33 31 31 32 31 31 31 30 29 27 26 25 24 23 22 22 21 20 20 20 20 19 19 19 18 18 18 18 18 18 18 18
34 35 35 34 34 35 34 35 35 34 33 33 33 29 29 30 30 31 31 30 29 28 26 25 24 23 23 22 21 21 20 20 20 19 19 19 19 18 18 18 18 18 18 18
33 34 34 34 35 35 35 35 35 35 34 33 32 30 28 29 30 31 32 31 30 29 27 26 24 23 23 22 21 21 20 20 20 20 19 19 19 19 18 18 18 18 18 18
34 35 35 35 35 35 35 35 34 34 34 31 32 31 28 28 30 31 32 31 30 29 27 26 25 24 23 22 22 21 20 20 20 20 19 19 19 19 18 18 18 18 18 18
33 34 35 35 34 35 35 33 32 31 32 31 32 32 30 31 32 32 32 31 30 29 27 26 25 24 23 23 22 21 21 20 20 20 19 19 19 19 18 18 18 18 18 18
31 32 34 34 34 34 34 33 31 30 30 30 32 31 32 33 33 32 32 31 30 29 28 26 25 24 23 23 22 21 21 20 20 20 19 19 19 19 19 18 18 18 18 17
32 32 35 35 35 35 34 33 34 33 32 31 30 31 32 34 33 33 32 31 30 29 28 27 25 25 24 23 22 22 21 21 20 20 20 19 19 19 18 18 18 18 18 17
33 32 34 35 35 35 35 34 34 33 31 30 31 31 31 32 32 33 32 31 30 29 28 27 26 25 24 23 22 22 21 21 20 20 19 19 19 19 19 18 18 18 17 17
33 32 33 34 33 33 33 33 33 33 32 31 30 30 32 31 32 33 32 31 30 29 28 27 26 25 24 24 23 22 21 21 20 20 20 19 19 19 18 18 18 18 17 17
33 32 32 33 35 35 34 34 33 32 31 32 31 31 33 32 33 33 32 31 30 29 28 27 26 25 25 24 23 22 22 21 21 20 20 19 19 18 18 18 18 18 18 17
32 31 30 31 33 34 33 34 34 34 33 32 31 31 32 32 33 33 31 30 29 28 28 27 26 25 24 24 23 22 22 21 20 20 20 19 19 18 18 18 18 17 17 17
32 31 30 30 32 33 32 33 34 33 32 32 32 31 32 32 33 32 31 30 29 28 27 26 25 24 24 23 23 22 22 21 21 20 20 19 19 18 18 18 18 17 17 17
31 30 30 31 33 33 33 33 33 33 33 33 32 32 32 32 32 32 31 29 28 27 26 25 24 24 23 23 22 22 22 21 21 20 20 19 19 18 18 18 17 17 17 16
30 29 30 30 32 33 33 33 33 33 33 33 33 32 32 32 31 31 30 29 28 26 25 25 24 23 23 22 22 22 21 21 20 20 19 19 18 18 18 17 17 17 17 16
30 28 28 29 31 31 31 32 33 33 34 33 32 32 31 31 30 29 28 28 27 26 25 24 23 22 22 22 22 21 21 20 20 19 19 19 18 18 17 17 17 17 16 16
28 27 28 29 29 28 31 34 34 33 33 33 33 32 32 30 29 28 28 27 26 25 25 24 23 22 22 21 21 21 20 20 19 19 19 18 18 17 17 17 17 16 16 16
29 27 28 28 28 29 31 33 33 32 31 33 32 32 31 30 29 28 27 26 25 25 24 23 23 22 21 21 20 20 20 19 19 19 18 18 18 17 17 17 16 16 15 15
29 28 27 27 27 28 30 32 33 32 30 32 32 31 30 30 29 27 25 25 24 24 23 23 22 22 21 20 20 20 19 19 19 18 18 18 17 17 17 17 16 16 15 15
27 27 27 27 27 29 30 31 32 29 29 30 30 29 28 28 27 25 24 24 23 23 22 22 21 21 20 20 20 19 19 18 18 18 18 17 17 17 16 16 16 15 15 14
27 27 26 27 27 27 30 30 29 27 28 28 28 27 26 25 24 24 23 23 22 22 21 21 21 20 20 19 19 19 18 18 18 18 17 17 17 16 16 15 15 15 14 14
27 27 27 27 26 26 27 27 26 27 27 27 26 25 25 24 23 22 22 21 21 21 20 20 20 19 19 18 19 18 18 18 17 17 17 16 16 16 15 15 15 14 14 14
27 27 27 26 26 26 25 25 25 25 25 25 25 24 24 23 22 21 21 20 20 20 20 19 19 18 18 18 18 18 17 17 17 17 16 16 15 15 15 14 14 14 14 13
26 25 25 25 25 25 25 24 24 24 24 24 24 24 23 22 21 21 20 20 19 19 19 18 18 18 17 17 17 17 17 16 16 16 15 15 15 15 14 14 14 14 13 13
25 24 24 24 24 24 23 23 23 23 23 23 23 22 22 21 20 20 19 19 19 18 18 18 18 17 17 17 17 16 16 16 15 15 15 14 14 14 14 14 13 13 13 13
Wind_Speed
12 12 11 9 7 6 6 5 5 5 5 3 7 11 13 13 12 13 13 13 13 12 11 11 10 10 9 7 6 5 4 4 3 2 2 2 2 3 2 3 4 4 4 2
12 15 13 8 5 5 6 4 4 5 5 4 3 6 7 9 8 11 13 12 13 13 12 11 10 10 9 8 7 6 5 5 4 3 2 2 2 2 2 1 2 3 3 3
16 11 9 9 9 8 8 4 2 3 5 6 2 2 3 5 6 8 11 12 13 14 14 13 11 9 9 9 7 6 5 5 4 3 2 1 2 0 0 1 1 2 3 3
14 11 8 10 10 10 8 4 3 4 6 4 4 2 3 5 8 9 10 11 13 13 14 13 12 10 9 8 8 7 6 4 4 3 2 2 2 1 1 1 1 1 2 2
13 13 11 11 11 9 6 4 6 9 8 5 3 3 3 5 7 10 11 10 11 13 14 13 12 10 9 9 9 8 7 5 4 3 2 1 0 1 0 1 1 1 1 2
15 12 12 11 10 9 7 6 9 11 10 8 5 3 4 5 6 8 10 11 10 13 14 13 12 11 9 9 9 9 7 5 5 4 3 1 0 1 1 1 0 1 0 1
15 14 12 10 11 11 10 9 7 8 7 6 5 2 5 8 9 10 10 12 12 13 14 14 13 12 10 9 9 9 8 6 5 4 3 2 1 0 1 1 1 1 1 1
16 15 15 13 14 11 12 13 11 7 4 3 4 0 4 9 11 11 11 11 12 14 14 14 13 12 11 10 9 9 9 7 6 5 3 2 2 1 0 0 1 1 2 1
13 17 18 16 15 16 13 14 16 13 10 4 3 3 5 10 11 12 13 12 11 13 14 14 14 13 12 10 9 9 9 7 6 5 4 3 2 1 1 2 1 1 2 1
14 11 14 16 14 16 15 13 9 9 7 6 4 7 6 9 11 12 12 13 12 12 13 13 13 13 12 11 10 9 9 8 6 5 4 4 3 2 1 1 1 2 2 3
18 13 12 14 16 17 16 16 11 8 8 7 3 0 6 6 8 11 11 13 13 13 12 12 11 12 12 12 12 10 9 8 7 6 5 3 3 3 2 1 1 2 2 2
16 12 12 14 16 16 16 17 14 10 7 7 6 3 9 8 8 10 11 10 11 12 12 11 12 11 11 11 11 10 10 9 8 6 6 5 3 2 2 2 2 2 2 2
12 11 11 13 15 17 16 17 16 14 10 9 9 3 7 8 8 10 12 11 11 12 12 11 11 11 10 9 9 9 8 9 8 8 7 6 4 3 3 2 3 3 2 3
7 11 14 15 12 14 17 17 16 15 11 10 9 6 7 6 8 11 12 12 11 12 11 11 10 9 8 8 7 7 7 7 8 7 7 6 5 4 4 3 3 3 3 3
9 12 16 18 16 13 14 16 18 17 15 12 7 7 7 8 8 11 12 12 12 11 11 10 9 8 8 8 8 7 7 6 6 6 6 6 6 5 4 4 4 3 3 4
9 10 14 17 18 16 14 15 16 16 15 13 9 5 3 6 8 10 10 11 11 11 11 10 9 9 8 7 7 8 7 7 6 6 6 6 6 5 5 4 4 4 4 5
11 9 11 14 16 16 17 15 15 14 13 11 10 5 6 7 8 9 9 9 9 10 10 10 10 9 8 7 7 7 8 7 7 6 6 6 6 5 5 5 5 5 5 5
8 8 9 12 13 17 13 12 12 11 9 7 6 4 6 8 10 9 8 8 7 7 9 9 9 9 9 8 7 7 7 8 7 6 6 6 6 6 5 5 5 5 5 5
9 7 10 12 14 14 12 10 11 10 8 7 5 3 5 8 10 8 7 7 6 7 7 7 9 9 9 8 8 7 7 7 7 7 6 6 5 6 6 6 5 5 5 5
13 8 11 11 13 14 9 9 8 8 7 3 2 4 5 5 4 5 6 6 5 7 6 7 8 9 9 8 8 7 7 7 6 6 6 6 5 6 6 6 5 5 5 5
14 13 14 15 14 10 5 6 7 9 4 2 2 4 6 4 5 7 8 7 7 7 7 7 8 8 7 7 8 7 6 6 6 6 6 7 6 6 6 6 5 5 5 5
14 13 13 13 14 8 2 4 3 3 5 6 7 8 9 10 10 9 8 9 8 7 8 8 8 7 7 7 7 7 6 6 6 6 7 6 6 6 6 6 5 5 5 5
11 8 7 5 4 3 8 8 8 7 7 7 8 8 9 9 10 9 8 8 7 7 7 7 8 8 7 6 6 6 5 6 6 7 6 6 5 4 5 6 5 4 4 4
6 2 4 3 4 5 6 7 7 7 7 7 7 7 8 9 9 9 7 7 6 6 6 7 8 8 7 6 6 6 5 5 6 6 5 5 5 5 5 3 3 3 2 2
4 3 3 3 4 5 5 6 7 6 6 7 7 7 7 8 8 8 7 6 5 5 6 6 6 7 7 6 6 5 6 6 6 6 5 5 4 5 5 4 3 2 3 2
2 2 4 3 3 2 4 5 5 5 5 5 6 6 6 7 7 7 6 6 5 5 5 5 6 6 6 6 6 5 6 6 6 5 5 4 4 5 5 6 5 9 7 8
Wind_Direction
224 231 230 228 222 240 261 197 193 146 150 187 159 156 158 166 171 162 164 165 163 161 156 150 152 152 151 147 151 156 158 152 164 176 188 194 201 215 218 210 190 200 220 232
227 232 235 237 217 233 241 222 198 149 152 224 176 132 152 160 173 164 163 160 161 156 154 155 156 160 159 155 161 159 162 165 181 177 189 196 196 206 198 215 163 199 208 216
232 231 222 228 228 228 239 232 223 192 210 222 188 139 146 161 183 170 160 164 163 162 159 159 164 166 163 158 159 156 156 154 168 169 184 193 163 236 170 185 190 214 210 207
234 237 232 232 233 234 247 254 263 253 254 251 228 177 243 185 195 183 170 168 163 162 159 160 162 164 159 155 151 140 144 144 154 169 196 206 183 191 207 195 167 206 216 216
227 225 228 234 235 239 261 299 279 267 265 259 217 161 200 172 203 184 167 156 158 154 154 155 156 155 155 157 151 146 142 145 149 158 167 198 236 198 193 124 131 223 220 219
243 228 225 232 235 245 252 258 268 268 269 261 242 209 154 169 193 166 152 148 155 148 147 147 148 145 152 154 150 145 141 141 147 156 158 159 238 13 25 28 61 260 220 234
232 234 226 234 234 227 234 241 247 246 240 252 251 220 156 163 159 150 148 150 152 146 145 146 148 150 156 155 149 142 141 144 148 150 154 157 168 159 12 328 307 326 13 42
215 222 219 220 233 231 221 241 250 262 276 260 280 210 144 133 130 139 139 142 147 146 147 148 150 154 158 156 151 143 142 145 150 153 154 143 139 188 215 264 345 15 15 46
221 221 212 212 223 241 232 232 253 262 262 242 196 154 141 143 143 143 141 140 146 148 149 152 156 159 158 156 150 144 141 144 148 151 147 138 134 122 48 80 40 33 18 19
256 247 215 202 213 230 248 249 254 261 286 283 220 190 177 163 152 148 147 147 146 148 151 154 157 157 154 153 145 142 141 145 148 152 158 153 147 146 128 74 59 44 41 32
244 252 232 211 207 221 224 242 254 265 266 272 275 36 125 143 166 154 152 148 148 152 150 150 150 147 149 151 152 151 149 150 152 151 143 137 142 152 145 118 87 68 56 50
232 245 242 227 212 223 229 230 234 243 257 277 275 157 136 158 172 151 145 142 147 146 145 148 147 145 150 154 154 154 156 157 158 152 144 144 142 136 128 112 87 81 82 74
224 241 242 236 218 210 227 234 236 235 233 247 261 167 141 165 157 146 142 144 149 143 142 142 143 146 151 148 145 151 158 158 158 155 151 150 148 137 121 103 91 85 84 79
241 236 242 239 226 210 218 227 235 242 240 236 231 181 165 160 149 140 138 142 147 141 136 136 138 141 142 139 141 149 152 151 152 150 150 149 146 140 130 119 108 95 88 80
236 236 244 257 263 246 226 221 227 235 248 253 234 212 188 158 153 141 143 147 146 142 141 139 143 142 141 143 148 148 143 138 136 141 147 148 142 135 125 116 109 98 88 83
223 250 246 250 255 253 242 230 227 231 237 244 247 232 156 136 129 129 140 149 150 152 154 153 150 147 148 150 155 148 144 137 135 141 139 133 131 130 126 118 108 97 87 81
212 226 243 246 245 250 243 233 230 235 235 237 237 219 152 149 132 135 142 153 159 161 160 156 156 155 153 155 152 148 145 140 139 135 128 130 131 130 129 125 117 108 99 92
223 220 233 247 250 245 245 240 233 236 241 235 231 200 161 141 126 128 141 150 154 157 158 157 160 155 150 148 143 140 144 143 142 136 132 131 134 131 123 114 112 107 104 101
212 214 230 238 240 241 245 233 229 225 231 236 223 160 123 125 127 126 126 130 143 150 147 153 155 152 146 145 141 142 141 141 141 141 139 136 136 133 131 126 120 115 112 105
209 203 228 235 240 240 229 237 239 218 218 216 199 149 145 151 166 125 112 119 119 128 129 136 142 141 138 140 139 142 140 139 143 142 136 131 129 132 134 129 123 118 117 115
206 205 221 236 241 245 241 221 226 223 198 121 95 93 103 83 73 107 113 108 109 116 116 118 120 124 127 131 134 138 137 137 136 134 130 126 124 126 127 124 125 127 126 122
208 208 215 232 240 237 305 220 210 89 72 80 79 85 88 93 95 97 100 106 114 120 121 122 117 117 122 129 135 136 132 127 126 126 130 129 131 136 135 131 132 139 141 138
215 217 215 227 228 55 46 66 78 87 83 82 88 93 103 109 106 102 94 95 105 113 122 124 125 123 122 124 129 133 124 124 129 130 132 132 132 127 133 144 151 158 162 162
208 209 213 188 144 101 79 73 69 75 82 86 94 104 113 114 113 107 102 99 102 107 114 120 125 125 124 124 121 118 122 127 134 138 140 138 138 134 126 130 142 153 158 164
198 196 207 174 130 114 100 89 83 79 86 90 93 99 106 110 117 120 116 110 105 106 108 117 125 130 133 131 126 127 132 138 143 145 147 146 149 147 132 112 72 94 77 90
256 188 205 188 129 141 113 94 90 88 90 95 100 100 108 112 116 117 114 112 109 108 112 123 130 133 137 137 132 134 141 145 151 156 162 167 167 158 150 138 106 58 71 80
Height
1497 1497 1498 1493 1491 1493 1495 1500 1504 1497 1493 1496 1500 1504 1506 1510 1514 1518 1523 1528 1533 1538 1542 1545 1548 1550 1551 1552 1553 1554 1554 1555 1556 1556 1557 1557 1558 1559 1559 1560 1560 1561 1561 1561
1497 1497 1490 1487 1488 1491 1493 1498 1499 1494 1492 1495 1499 1503 1503 1507 1512 1515 1520 1525 1530 1535 1539 1543 1546 1548 1550 1550 1552 1553 1553 1554 1555 1555 1556 1557 1557 1558 1558 1559 1559 1559 1559 1560
1497 1491 1486 1489 1491 1494 1493 1496 1498 1499 1493 1493 1499 1512 1509 1510 1512 1515 1518 1522 1527 1531 1536 1540 1544 1547 1549 1550 1551 1552 1553 1553 1554 1555 1555 1556 1557 1557 1557 1558 1558 1558 1558 1558
1492 1488 1488 1491 1492 1492 1497 1488 1491 1495 1502 1507 1504 1531 1521 1513 1513 1514 1516 1520 1524 1529 1534 1538 1542 1545 1547 1549 1550 1551 1552 1553 1553 1554 1554 1555 1556 1556 1557 1557 1557 1557 1557 1557
1491 1488 1490 1494 1490 1489 1491 1487 1490 1492 1498 1507 1506 1523 1529 1515 1516 1512 1512 1517 1522 1527 1531 1536 1540 1543 1546 1548 1549 1550 1551 1552 1552 1553 1554 1554 1555 1556 1556 1556 1556 1556 1556 1556
1486 1484 1486 1488 1487 1487 1488 1492 1494 1493 1497 1518 1510 1517 1531 1519 1512 1509 1510 1515 1520 1525 1530 1535 1539 1542 1545 1548 1549 1550 1550 1551 1552 1553 1553 1554 1554 1555 1555 1555 1555 1555 1555 1555
1493 1486 1485 1486 1490 1489 1491 1504 1519 1522 1520 1521 1503 1509 1518 1503 1501 1504 1509 1513 1518 1523 1528 1533 1538 1541 1544 1547 1548 1549 1550 1550 1551 1552 1553 1553 1554 1554 1554 1554 1555 1555 1554 1554
1501 1500 1486 1486 1490 1492 1494 1500 1520 1533 1533 1524 1508 1513 1504 1494 1499 1503 1507 1513 1518 1523 1528 1532 1536 1540 1543 1545 1547 1548 1549 1550 1551 1552 1552 1553 1553 1554 1554 1554 1554 1554 1553 1553
1491 1494 1479 1481 1484 1487 1493 1496 1490 1503 1510 1522 1520 1511 1502 1494 1497 1502 1507 1512 1517 1522 1527 1531 1535 1539 1542 1544 1546 1548 1548 1550 1551 1551 1552 1552 1553 1553 1553 1553 1553 1553 1553 1553
1480 1489 1478 1478 1483 1484 1486 1487 1493 1505 1523 1531 1521 1515 1512 1502 1499 1501 1506 1511 1517 1521 1526 1530 1534 1537 1541 1543 1546 1547 1548 1549 1550 1551 1552 1552 1552 1552 1553 1552 1552 1552 1552 1552
1479 1488 1484 1479 1487 1490 1491 1493 1494 1497 1503 1522 1532 1525 1498 1500 1499 1501 1505 1510 1516 1520 1524 1529 1533 1536 1540 1542 1545 1546 1547 1549 1550 1550 1551 1552 1552 1552 1552 1552 1552 1551 1551 1551
1478 1483 1489 1482 1475 1478 1482 1487 1492 1508 1510 1506 1516 1517 1494 1497 1497 1500 1505 1510 1515 1519 1524 1528 1532 1536 1539 1542 1544 1545 1547 1548 1549 1550 1550 1551 1552 1552 1552 1551 1551 1551 1551 1550
1478 1486 1500 1498 1487 1481 1483 1482 1483 1487 1496 1507 1515 1514 1494 1497 1496 1500 1505 1511 1515 1520 1523 1527 1531 1535 1538 1541 1543 1545 1546 1548 1549 1549 1550 1550 1551 1551 1551 1551 1551 1551 1550 1550
1479 1485 1494 1500 1490 1481 1486 1484 1482 1487 1498 1503 1503 1504 1496 1494 1496 1500 1505 1510 1515 1519 1524 1527 1531 1534 1537 1539 1541 1544 1545 1547 1548 1549 1549 1550 1550 1550 1550 1550 1550 1550 1550 1550
1480 1488 1486 1482 1476 1475 1478 1481 1482 1486 1488 1494 1495 1496 1494 1492 1495 1500 1505 1510 1515 1519 1523 1527 1531 1534 1536 1538 1540 1542 1544 1546 1547 1548 1548 1549 1549 1550 1550 1550 1550 1550 1550 1550
1481 1488 1487 1487 1478 1475 1477 1476 1478 1480 1482 1486 1489 1493 1489 1492 1495 1501 1505 1510 1514 1518 1522 1527 1530 1532 1535 1537 1539 1541 1543 1544 1545 1546 1547 1548 1549 1549 1550 1550 1550 1550 1550 1550
1482 1490 1494 1494 1482 1481 1487 1477 1477 1479 1477 1482 1490 1490 1490 1493 1497 1502 1506 1510 1514 1518 1521 1525 1528 1531 1534 1536 1538 1540 1541 1543 1544 1545 1546 1547 1548 1548 1549 1550 1549 1550 1550 1550
1484 1489 1492 1494 1493 1506 1482 1467 1469 1475 1477 1477 1481 1483 1488 1493 1498 1502 1506 1510 1513 1517 1520 1524 1527 1530 1533 1535 1537 1539 1541 1542 1543 1544 1546 1547 1547 1548 1549 1549 1549 1549 1549 1550
1479 1487 1493 1495 1499 1493 1477 1469 1470 1476 1483 1478 1481 1484 1489 1493 1498 1504 1507 1510 1513 1516 1519 1522 1526 1528 1531 1533 1535 1537 1539 1541 1542 1543 1545 1546 1547 1548 1548 1549 1549 1549 1549 1550
1477 1483 1492 1494 1501 1500 1482 1470 1469 1474 1486 1480 1482 1486 1489 1492 1498 1505 1508 1510 1514 1516 1518 1522 1524 1527 1529 1531 1534 1536 1538 1539 1541 1542 1543 1545 1546 1546 1547 1548 1548 1549 1549 1549
1482 1486 1491 1493 1495 1485 1471 1469 1472 1488 1490 1483 1485 1488 1492 1496 1501 1506 1508 1510 1514 1515 1518 1521 1523 1525 1528 1530 1532 1534 1536 1538 1540 1541 1542 1543 1544 1546 1547 1547 1547 1548 1549 1549
1479 1484 1489 1490 1494 1492 1475 1472 1478 1485 1484 1485 1488 1491 1495 1499 1503 1506 1508 1510 1514 1517 1519 1520 1522 1524 1527 1529 1532 1533 1535 1537 1538 1540 1541 1542 1543 1544 1545 1546 1547 1547 1548 1548
1472 1475 1477 1483 1487 1483 1480 1481 1483 1485 1487 1489 1492 1495 1498 1501 1505 1508 1510 1512 1514 1517 1519 1520 1522 1524 1527 1529 1531 1532 1534 1535 1537 1538 1540 1541 1542 1543 1544 1545 1546 1547 1547 1548
1470 1472 1475 1479 1481 1483 1484 1486 1487 1489 1491 1493 1495 1498 1500 1503 1506 1509 1511 1514 1515 1517 1519 1521 1522 1524 1526 1528 1530 1532 1533 1534 1536 1537 1538 1539 1541 1542 1543 1544 1545 1546 1546 1547
1471 1474 1476 1481 1482 1485 1488 1489 1491 1492 1494 1496 1498 1500 1502 1504 1507 1510 1512 1514 1516 1518 1520 1521 1522 1524 1526 1528 1529 1530 1531 1533 1534 1535 1537 1538 1539 1541 1541 1542 1543 1544 1545 1545
1473 1475 1479 1482 1483 1487 1490 1491 1493 1495 1496 1498 1500 1502 1504 1506 1508 1510 1513 1514 1516 1518 1519 1521 1522 1524 1525 1526 1527 1528 1530 1531 1533 1534 1535 1537 1538 1539 1540 1540 1541 1542 1543 1544